sat.trackr.live / text

‹ back to catalog

STARLINK-4625

NORAD 53683 · 2022-105AM

PAYLOAD ACTIVE UNKNOWN

§ Identity

Operator
Country
US
Launch date
2022-08-31
Launch site
AFWTR
Launch vehicle
Mass (kg)
RCS (m²)

Purposes: comms

External: N2YO · Heavens-Above · Gunter

§ Orbital elements

Epoch: 2026-09-20T14:34:09.558048Z

Period
95.64 min
Inclination
97.2855°
Eccentricity
0.0001745
Mean motion
15.05659228 rev/d
Perigee alt
548.3 km
Apogee alt
550.7 km
Semi-major
6,927.6 km
B*
4.8582e-5
RAAN
137.4302°
Arg perigee
75.7988°
Mean anomaly
284.3433°
Rev number
22,256

§ Raw data

STARLINK-46251 53683U 22105AM  26263.60705507  .00000645  00000+0  48582-4 0  99992 53683  97.2855 137.4302 0001745  75.7988 284.3433 15.05659228222561

JSON: /api/v1/satellites/53683 · /tle

For live sub-satellite position, see the globe view (requires WebGL).

§ Visibility from observer

Set your observer location to see the next 7 days of passes ≥ 10°. The values pass through the URL so the page stays shareable.

No JS? Fill the form by hand. The geolocation button needs JavaScript.